User: anonymous
Location: Caltech
(34.1382°N, 118.1253°W)
Time: 17:27:03
(UTC-07:00)
Language:

Cosmos 2219 Rocket - Orbit

View from above orbital plane
View from above orbital plane
View from above satellite
View from above satellite

Ground track
Ground track

The orbit data is extracted from the following two-line orbital elements,

1 22220U 92076B   14203.84037287 -.00000081  00000-0 -16871-4 0  3588
2 22220 071.0021 131.0591 0010677 086.2244 332.4231 14.16318714120634
Epoch (UTC): 22 July 2014 20:10:08
Eccentricity: 0.0010677
inclination: 71.0021°
perigee height: 830 km
apogee height: 845 km
right ascension of ascending node: 131.0591°
argument of perigee: 86.2244°
revolutions per day: 14.16318714
mean anomaly at epoch: 332.4231°
orbit number at epoch: 12063

The dashed part of the orbit path shows where the satellite is in the earth's shadow,  

DLR